AirNav   ProFlight Series 2 Aviation Headset
 
 281 users online  

55AR Silver Wings Field Airport
Eureka Springs, Arkansas, USA

GOING TO EUREKA SPRINGS?


FAA INFORMATION EFFECTIVE 18 JUNE 2020

Location

FAA Identifier: 55AR
Lat/Long: 36-25-47.0000N 093-41-44.0000W
36-25.783333N 093-41.733333W
36.4297222,-93.6955556
(estimated)
Elevation: 1571 ft. / 479 m (estimated)
Variation: 03E (2000)
From city: 3 miles NE of EUREKA SPRINGS, AR
Time zone: UTC -5 (UTC -6 during Standard Time)
Zip code: 72632

Airport Operations

Airport use: Private use. Permission required prior to landing
Activation date: 09/2002
Control tower: no
ARTCC: MEMPHIS CENTER
FSS: JONESBORO FLIGHT SERVICE STATION
Attendance: UNATNDD
Wind indicator: yes
Segmented circle: no

Nearby radio navigation aids

VOR radial/distance  VOR name  Freq  Var
RZCr058/23.3RAZORBACK VORTAC116.4004E
HROr282/24.2HARRISON VOR/DME112.5004E

Airport Services

Runway Information

Runway 16/34

Dimensions: 1900 x 65 ft. / 579 x 20 m
Surface: turf, in good condition
RUNWAY 16  RUNWAY 34
Traffic pattern: rightleft

Airport Ownership and Management from official FAA records

Ownership: Privately-owned
Owner: AVIATION CADET MUSEUM INC
542 CR 2073
EUREKA SPRINGS, AR 72632
Phone (479) 253-2008
OR 479-253-5008.
Manager: ERROL D. SEVERE
542 CR 2073
EUREKA SPRINGS, AR 72632
Phone 479-253-5008

Airport Operational Statistics

Aircraft based on the field: 1
Single engine airplanes: 1
    
Aircraft operations: 48/year *
100% transient general aviation
* for 12-month period ending 31 August 2007

Additional Remarks

RADIO CONTROLLED MODEL ACFT INVOF RY ON THE SE END.
NO LNDGS RY 34. ALL TKOFS WILL BE TO THE N AND ALL LNDGS WILL BE FM THE N.
ALL PILOTS MUST CONTACT AMGR AT 479-253-5008 TO OBTAIN PMSN TO LND.
FOR CD CTC RAZORBACK APCH 479-649-2416, WHEN APCH CLSD CTC MEMPHIS ARTCC AT 901-368-8453.

Instrument Procedures

There are no published instrument procedures at 55AR.

Some nearby airports with instrument procedures:

4M1 - Carroll County Airport (4 nm SE)
94K - Cassville Municipal Airport (19 nm NW)
KROG - Rogers Executive Airport - Carter Field (20 nm W)
H34 - Huntsville Municipal Airport (21 nm S)
KFWB - Branson West Municipal Airport - Emerson Field (21 nm NE)
 
Loc | Ops | Rwys | IFR | FBO | Links
Com | Nav | Svcs | Stats | Notes
Aerial photo
WARNING: Photo may not be current or correct
Aerial photo of 55AR (Silver Wings Field Airport)
Photo taken 08-May-2015
looking southwest.

Do you have a better or more recent aerial photo of Silver Wings Field Airport that you would like to share? If so, please send us your photo.

 
Sectional chart

 
Airport distance calculator
Flying to Silver Wings Field Airport? Find the distance to fly.

From to 55AR

Sunrise and sunset
Times for 04-Jul-2020
 Local
(UTC-5)
 Zulu
(UTC)
Morning civil twilight05:3310:33
Sunrise06:0311:03
Sunset20:3501:35
Evening civil twilight21:0502:05

Current date and time
Zulu (UTC)  04-Jul-2020 07:16:31
Local (UTC-5)  04-Jul-2020 02:16:31
 
METAR
KROG 
19nm W 
040658Z AUTO 11006KT 10SM CLR 23/21 A2998 RMK AO2 SLP134 T02330211
KFWB 
21nm NE 
040655Z AUTO 00000KT 3SM BR FEW043 A2999 RMK AO2 LTG DSNT W
KBBG 
25nm E 
040655Z AUTO 00000KT 10SM CLR 21/21 A2999 RMK AO2 LTG DSNT W PWINO PNO
KVBT 
26nm W 
040656Z AUTO 14004KT 10SM CLR 24/21 A2999 RMK AO2 SLP143 T02390211 TSNO
KASG 
26nm SW 
040148Z 09004KT 10SM CLR 27/22 A2999
KHRO 
28nm E 
040653Z AUTO 24004KT 10SM CLR 21/21 A2999 RMK AO2 SLP138 T02060206
KXNA 
30nm W 
040653Z AUTO 20003KT 10SM CLR 23/20 A2997 RMK AO2 LTG DSNT NW SLP132 T02280200
KHFJ 
32nm NW 
040655Z AUTO 00000KT 10SM BKN100 20/20 A2999 RMK AO2
KFYV 
34nm SW 
040653Z AUTO 00000KT 10SM CLR 23/22 A2998 RMK AO2 RAB0555E12 TSE0557 SLP134 P0001 T02330222
TAF
KROG 
19nm W 
040520Z 0406/0506 01007KT P6SM VCTS BKN050CB TEMPO 0406/0410 5SM -TSRA BKN025CB FM041200 VRB03KT P6SM SCT035 BKN250 FM041700 02005KT P6SM VCTS BKN040CB TEMPO 0419/0423 4SM -TSRA BKN025CB FM050100 05005KT P6SM SCT050 BKN250
NOTAMs
Click for the latest NOTAMs
NOTAMs are issued by the DoD/FAA and will open in a separate window not controlled by AirNav.

 

 
 

Things to do: Attractions on or near the airport

  
 Business Name 
 
 Contact 
 
 Services / Description 
 
Distance
 
Comments
  
Aviation Cadet World 479-253-5008
no information available

If you are affiliated with Aviation Cadet World and would like to show here your services, contact info, web link, logo, and more, click here
on airport  
   write
 

Would you like to see your business listed on this page?

 If your business provides an interesting product or service to pilots, flight crews, aircraft, or users of the Silver Wings Field Airport, you should consider listing it here.  To start the listing process, click on the button below
 
Add a business
 

Other Pages about Silver Wings Field Airport

Update a link
 
Copyright © AirNav, LLC. All rights reserved. Privacy Policy  Contact